Weather History for Mandan, ND

Change the Weather History Date:

Thursday, January 17, 2013

  Actual Average (KBIS) Record (KBIS)
Temperature  
Mean Temperature 26 °F 12 °F  
Max Temperature 28 °F 23 °F 54 °F (1926)
Min Temperature 23 °F 2 °F -40 °F (1967)
Degree Days  
Heating Degree Days 40 53  
Month to date heating degree days 896  
Since 1 July heating degree days 4396  
Cooling Degree Days 0 0  
Month to date cooling degree days 0  
Year to date cooling degree days 0  
Moisture  
Dew Point 25 °F    
Average Humidity 96    
Maximum Humidity 100    
Minimum Humidity 93    
Precipitation  
Precipitation 0.00 in 0.02 in 0.58 in (1996)
Month to date precipitation 0.26  
Year to date precipitation 0.26  
Snow  
Snow 0.00 in 0.20 in 13.20 in (1996)
Month to date snowfall 5.3  
Since 1 July snowfall 25.8  
Snow Depth -    
Sea Level Pressure  
Sea Level Pressure 30.21 in    
Wind  
Wind Speed 10 mph (NNW)    
Max Wind Speed 15 mph    
Max Gust Speed -    
Visibility 10 miles    
Events      
T = Trace of Precipitation, MM = Missing Value Source: NWS Daily Summary

Daily Weather History Graph

Daily Weather History Graph

Search for Another Location

Airport:

Trip Planner

Search our weather history database for the weather conditions in past years. The results will help you decide how hot, cold, wet, or windy it might be!

Date:

Astronomy

Jan. 17, 2013 Rise Set
Actual Time 8:22 AM CST 5:25 PM CST
Civil Twilight 7:48 AM CST 5:59 PM CST
Nautical Twilight 7:11 AM CST 6:36 PM CST
Astronomical Twilight 6:35 AM CST 7:13 PM CST
Moon 11:02 AM CST (1/17) No Moon Set
Length of Visible Light 10h 10m
Length of Day
9h 02m
Waxing Crescent, 38% of the Moon is Illuminated
Jan 17
Waxing Crescent
Jan 18
First Quarter
Jan 26
Full
Feb 3
Last Quarter
Feb 10
New

Hourly Weather History & Observations

Time (CST) Temp. Windchill Dew Point Humidity Pressure Visibility Wind Dir Wind Speed Gust Speed Precip Events Conditions
12:15 AM 23.0 °F 11.7 °F 23.0 °F 100% 30.16 in 10.0 mi WSW 11.5 mph - N/A   Unknown
12:35 AM 24.8 °F 13.4 °F 24.8 °F 100% 30.18 in 10.0 mi WSW 12.7 mph - N/A   Unknown
12:55 AM 26.6 °F 16.2 °F 24.8 °F 93% 30.17 in 10.0 mi West 11.5 mph - N/A   Unknown
1:15 AM 26.6 °F 15.7 °F 24.8 °F 93% 30.18 in 10.0 mi West 12.7 mph - N/A   Unknown
1:35 AM 26.6 °F 15.2 °F 26.6 °F 100% 30.18 in 10.0 mi West 13.8 mph - N/A   Unknown
1:55 AM 26.6 °F 16.2 °F 26.6 °F 100% 30.19 in 10.0 mi WNW 11.5 mph - N/A   Unknown
2:15 AM 28.4 °F 19.1 °F 26.6 °F 93% 30.19 in 10.0 mi WNW 10.4 mph - N/A   Unknown
2:35 AM 26.6 °F 16.2 °F 26.6 °F 100% 30.19 in 10.0 mi West 11.5 mph - N/A   Unknown
3:35 AM 26.6 °F 17.5 °F 26.6 °F 100% 30.21 in 10.0 mi West 9.2 mph - N/A   Unknown
3:55 AM 26.6 °F 17.5 °F 26.6 °F 100% 30.22 in 10.0 mi West 9.2 mph - N/A   Unknown
4:15 AM 26.6 °F 16.2 °F 26.6 °F 100% 30.23 in 10.0 mi West 11.5 mph - N/A   Unknown
4:35 AM 26.6 °F 16.2 °F 26.6 °F 100% 30.23 in 10.0 mi West 11.5 mph - N/A   Unknown
4:55 AM 26.6 °F 16.2 °F 26.6 °F 100% 30.23 in 10.0 mi WNW 11.5 mph - N/A   Unknown
5:15 AM 26.6 °F 16.8 °F 26.6 °F 100% 30.23 in 10.0 mi WNW 10.4 mph - N/A   Unknown
5:35 AM 26.6 °F 16.8 °F 26.6 °F 100% 30.24 in 10.0 mi WNW 10.4 mph - N/A   Unknown
5:55 AM 28.4 °F 19.7 °F 28.4 °F 100% 30.24 in 10.0 mi NW 9.2 mph - N/A   Unknown
6:15 AM 28.4 °F 19.7 °F 26.6 °F 93% 30.26 in 10.0 mi NNW 9.2 mph - N/A   Unknown
6:35 AM 28.4 °F 18.5 °F 26.6 °F 93% 30.26 in 10.0 mi NNW 11.5 mph - N/A   Unknown
6:55 AM 28.4 °F 18.0 °F 26.6 °F 93% 30.26 in 10.0 mi NNW 12.7 mph - N/A   Unknown
7:15 AM 26.6 °F 16.2 °F 26.6 °F 100% 30.27 in 10.0 mi North 11.5 mph - N/A   Unknown
7:35 AM 26.6 °F 16.2 °F 24.8 °F 93% 30.28 in 10.0 mi NNW 11.5 mph - N/A   Unknown
7:55 AM 26.6 °F 17.5 °F 24.8 °F 93% 30.30 in 10.0 mi NNW 9.2 mph - N/A   Unknown
8:15 AM 24.8 °F 16.9 °F 24.8 °F 100% 30.30 in 10.0 mi NNW 6.9 mph - N/A   Unknown
8:35 AM 24.8 °F 16.9 °F 24.8 °F 100% 30.30 in 10.0 mi NNW 6.9 mph - N/A   Unknown
8:55 AM 24.8 °F 14.6 °F 23.0 °F 93% 30.31 in 10.0 mi North 10.4 mph - N/A   Unknown
9:15 AM 24.8 °F 16.9 °F 23.0 °F 93% 30.32 in 10.0 mi NNW 6.9 mph - N/A   Unknown
9:35 AM 24.8 °F 16.9 °F 23.0 °F 93% 30.32 in 10.0 mi NNW 6.9 mph - N/A   Unknown
9:55 AM 24.8 °F 16.1 °F 23.0 °F 93% 30.34 in 10.0 mi North 8.1 mph - N/A   Unknown
10:15 AM 24.8 °F 14.0 °F 23.0 °F 93% 30.34 in 10.0 mi North 11.5 mph - N/A   Unknown
10:35 AM 24.8 °F 16.9 °F 23.0 °F 93% 30.34 in 10.0 mi North 6.9 mph - N/A   Unknown
10:55 AM 24.8 °F 17.9 °F 23.0 °F 93% 30.33 in 10.0 mi NNE 5.8 mph - N/A   Unknown
11:15 AM 24.8 °F 17.9 °F 23.0 °F 93% 30.32 in 10.0 mi NE 5.8 mph - N/A   Unknown
11:35 AM 24.8 °F 16.9 °F 23.0 °F 93% 30.30 in 10.0 mi NE 6.9 mph - N/A   Unknown
11:55 AM 24.8 °F 16.9 °F 23.0 °F 93% 30.31 in 10.0 mi NE 6.9 mph - N/A   Unknown
12:15 PM 24.8 °F 19.1 °F 23.0 °F 93% 30.30 in 10.0 mi ENE 4.6 mph - N/A   Unknown
12:35 PM 24.8 °F 19.1 °F 23.0 °F 93% 30.30 in 10.0 mi ENE 4.6 mph - N/A   Unknown
12:55 PM 24.8 °F 16.1 °F 23.0 °F 93% 30.28 in 10.0 mi ESE 8.1 mph - N/A   Unknown
1:15 PM 24.8 °F 16.1 °F 23.0 °F 93% 30.28 in 10.0 mi ESE 8.1 mph - N/A   Unknown
1:35 PM 24.8 °F 16.1 °F 23.0 °F 93% 30.28 in 10.0 mi ESE 8.1 mph - N/A   Unknown
1:55 PM 24.8 °F 17.9 °F 23.0 °F 93% 30.27 in 10.0 mi East 5.8 mph - N/A   Unknown
2:15 PM 24.8 °F 16.1 °F 23.0 °F 93% 30.26 in 10.0 mi ESE 8.1 mph - N/A   Unknown
2:35 PM 24.8 °F 16.1 °F 23.0 °F 93% 30.24 in 10.0 mi ESE 8.1 mph - N/A   Unknown
2:55 PM 24.8 °F 15.3 °F 23.0 °F 93% 30.22 in 10.0 mi ESE 9.2 mph - N/A   Unknown
3:15 PM 24.8 °F 15.3 °F 23.0 °F 93% 30.22 in 10.0 mi ESE 9.2 mph - N/A   Unknown
3:35 PM 24.8 °F 14.6 °F 23.0 °F 93% 30.21 in 10.0 mi East 10.4 mph - N/A   Unknown
3:55 PM 24.8 °F 14.0 °F 23.0 °F 93% 30.20 in 10.0 mi ESE 11.5 mph - N/A   Unknown
4:55 PM 24.8 °F 14.0 °F 23.0 °F 93% 30.17 in 10.0 mi SE 11.5 mph - N/A   Unknown
5:35 PM 24.8 °F 15.3 °F 24.8 °F 100% 30.15 in 10.0 mi SE 9.2 mph - N/A   Unknown
7:15 PM 26.6 °F 15.2 °F 26.6 °F 100% 30.09 in 10.0 mi SE 13.8 mph - N/A   Unknown
7:55 PM 26.6 °F 17.5 °F 26.6 °F 100% 30.07 in 10.0 mi SE 9.2 mph - N/A   Unknown
8:15 PM 26.6 °F 17.5 °F 26.6 °F 100% 30.06 in 10.0 mi SE 9.2 mph - N/A   Unknown
8:55 PM 26.6 °F 16.2 °F 26.6 °F 100% 30.02 in 10.0 mi SSE 11.5 mph - N/A   Unknown
9:15 PM 28.4 °F 17.5 °F 28.4 °F 100% 29.99 in 7.0 mi SSE 13.8 mph - N/A   Unknown
9:35 PM 28.4 °F 18.0 °F 28.4 °F 100% 29.98 in 10.0 mi South 12.7 mph - N/A   Unknown
9:55 PM 28.4 °F 18.0 °F 28.4 °F 100% 29.97 in 10.0 mi South 12.7 mph - N/A   Unknown
11:15 PM 28.4 °F 17.0 °F 28.4 °F 100% 29.90 in 10.0 mi South 15.0 mph - N/A   Unknown
11:35 PM 28.4 °F 18.0 °F 28.4 °F 100% 29.89 in 10.0 mi South 12.7 mph - N/A   Unknown
11:55 PM 28.4 °F 18.5 °F 28.4 °F 100% 29.88 in 10.0 mi SSW 11.5 mph - N/A   Unknown